Location: Grantsboro
(35.1404°N, 76.8424°W)
Time: 04:53:37
(UTC+00:00)

FENGYUN 3A - Pass Details

Date: 18 January 2020
Orbit: 824 x 835 km, 98.4° (Epoch: 26 February)

Event Time Altitude Azimuth Distance (km) Brightness Sun altitude
Rises 10:32:08 0° 10° (N) 3,372 6.8 -20.7°
Reaches altitude 10° 10:34:29 10° 8° (N) 2,436 6.1 -20.2°
Maximum altitude 10:39:52 74° 285° (WNW) 865 3.5 -19.2°
Drops below altitude 10° 10:45:14 10° 201° (SSW) 2,429 6.0 -18.1°
Sets 10:47:35 0° 199° (SSW) 3,361 6.8 -17.6°
